Location: Most
(50.5133°N, 13.6207°E)
Time: 10:52:47
(UTC+01:00)

Oscar 11 - Pass Details

Date: 02 December 2021
Orbit: 611 x 625 km, 97.6° (Epoch: 23 January)

Event Time Altitude Azimuth Distance (km) Brightness Sun altitude
Rises 06:57:03 0° 2° (N) 2,923 10.3 -7.5°
Reaches altitude 10° 06:59:42 10° 346° (NNW) 2,009 9.3 -7.2°
Maximum altitude 07:02:54 20° 299° (WNW) 1,439 8.3 -6.7°
Drops below altitude 10° 07:06:05 10° 252° (WSW) 1,993 9.3 -6.3°
Sets 07:08:42 0° 236° (SW) 2,892 10.2 -5.9°
